Location: Observatory
(52.1446°N, 0.4624°W)
Time: 00:37:40
(UTC+01:00)

ISS - Pass Details

Date: 22 May 2019
Orbit: 408 x 418 km, 51.6° (Epoch: 16 June)

Event Time Altitude Azimuth Distance (km) Brightness Sun altitude
Rises 00:00:47 0° 271° (W) 2,360 0.3 -16.5°
Reaches altitude 10° 00:02:53 10° 271° (W) 1,499 -0.8 -16.6°
Maximum altitude 00:06:15 83° 184° (S) 427 -3.9 -16.7°
Enters shadow 00:09:15 13° 96° (E) 1,350 -1.4 -16.8°
